Location: Festilli
(46.4000°N, 11.6667°E)
Time: 21:13:21
(UTC+00:00)

SL-4 R/B - Pass Details

Date: 03 March 2021
Orbit: 428 x 663 km, 51.6° (Epoch: 21 April)

Event Time Altitude Azimuth Distance (km) Brightness Sun altitude
Rises 18:11:16 0° 292° (WNW) 2,497 6.9 -12.7°
Reaches altitude 10° 18:13:33 10° 300° (WNW) 1,590 5.4 -13.1°
Maximum altitude 18:16:54 39° 11° (N) 680 2.4 -13.6°
Enters shadow 18:18:33 23° 65° (ENE) 969 2.8 -13.9°
